User: anonymous   Login
Location: Goll?ig?dem
(16.6773°N, 80.7332°E)
Time: 19:55:00
(UTC+00:00)
Language:

CZ-4 R/B - Orbit

View from above orbital plane
View from above orbital plane
View from above satellite
View from above satellite

Ground track
Ground track

The orbit data is extracted from the following two-line orbital elements,

1 29507U 06046C   25201.58167227  .00003431  00000-0  18969-3 0  9994
2 29507  97.5939 242.1093 0034987 352.8331   7.2396 15.14061478 24891
Epoch (UTC): 20 July 2025 13:57:36
Eccentricity: 0.0034987
inclination: 97.5939°
perigee height: 499 km
apogee height: 548 km
right ascension of ascending node: 242.1093°
argument of perigee: 352.8331°
revolutions per day: 15.14061478
mean anomaly at epoch: 7.2396°
orbit number at epoch: 2489

The dashed part of the orbit path shows where the satellite is in the earth's shadow,  

DLR